Location: Home
(42.5358°N, 72.7383°W)
Time: 14:59:32
(UTC-05:00)

Vanguard 1 - Pass Details

Date: 08 December 2021
Orbit: 652 x 3830 km, 34.2° (Epoch: 19 January)

Event Time Altitude Azimuth Distance (km) Brightness Sun altitude
Rises 06:06:54 0° 283° (WNW) 7,819 - -11.0°
Exits shadow 06:12:46 - 274° (W) 6,774 13.7 -10.0°
Reaches altitude 10° 06:14:41 10° 271° (W) 6,440 13.6 -9.7°
Maximum altitude 06:26:35 20° 233° (SW) 4,740 13.3 -7.6°
Drops below altitude 10° 06:35:30 10° 192° (SSW) 4,631 13.7 -6.2°
Sets 06:39:50 0° 176° (S) 5,119 14.2 -5.4°
